Location: *
(47.6569°N, 7.4256°E)
Time: 20:55:28
(UTC+00:00)

Meteor 2-4 Rocket - Pass Details

Date: 14 December 2019
Orbit: 798 x 909 km, 81.2° (Epoch: 25 January)

Event Time Altitude Azimuth Distance (km) Brightness Sun altitude
Rises 18:37:08 0° 202° (SSW) 3,510 7.2 -28.9°
Reaches altitude 10° 18:39:40 10° 206° (SSW) 2,564 6.5 -29.3°
Maximum altitude 18:45:25 58° 285° (WNW) 1,023 4.3 -30.3°
Enters shadow 18:47:26 38° 344° (NNW) 1,312 4.7 -30.6°
